Theta_e
310 311 311 310 311 312 312 313 313 314 315 315 314 312 311 311 311 315 318 316 317 315 316 318 317 323 331 333 336 338 341 342 340 345 349 348 348 347 342 335 335 336 335 336 335 335 335 335 338 339 339 339 338 338 341 341 341 343 342 338 340 343 344 343 341 341 340 338 339 338 338 339 340 341 342 342 342 342 342 341 341 341 341 340 339 339
311 311 312 312 312 312 312 313 313 314 315 315 314 312 311 312 312 316 317 316 316 315 314 318 318 319 325 332 332 336 340 341 340 345 348 348 346 345 340 334 334 335 335 336 336 336 335 335 337 337 336 335 334 335 340 341 341 343 339 335 339 342 342 342 340 338 337 337 337 336 336 338 339 341 341 341 341 341 341 340 340 340 339 338 338 337
311 311 312 313 313 313 313 313 313 314 315 316 315 312 309 312 314 315 316 316 316 315 315 317 318 318 321 331 333 334 339 340 339 343 345 346 346 344 340 336 334 334 335 337 337 336 336 335 337 338 336 334 335 337 339 340 340 341 340 339 341 341 340 341 339 338 337 337 337 336 337 339 341 342 340 340 340 340 340 340 338 338 337 336 335 335
310 311 312 313 313 312 312 313 314 314 315 316 315 311 309 312 313 311 314 316 316 315 316 318 317 318 321 332 337 337 338 339 337 340 343 344 346 345 340 336 335 336 336 335 335 336 337 337 338 337 336 335 335 337 338 340 341 340 340 340 341 340 339 340 339 338 339 338 337 337 338 340 341 340 339 339 339 339 339 338 337 336 336 335 334 334
311 312 312 313 312 312 312 312 313 314 314 316 315 312 310 313 313 312 314 316 316 315 317 317 313 316 321 329 337 339 340 342 339 341 345 345 345 344 341 338 337 338 337 336 336 336 338 339 339 337 336 335 335 335 337 339 341 340 338 338 339 339 339 339 338 338 340 338 336 336 339 340 340 339 338 339 339 338 338 337 336 335 334 334 333 333
311 312 312 312 312 312 312 312 313 313 313 313 315 314 313 315 315 315 316 314 312 311 314 316 310 312 320 327 337 339 340 346 345 345 346 345 345 343 343 342 339 339 338 338 337 337 339 340 338 337 336 336 335 336 338 338 339 339 338 338 339 339 339 339 339 339 339 338 335 336 339 340 340 340 339 339 339 338 337 336 336 334 333 332 332 332
312 312 312 312 311 312 311 311 312 313 312 310 313 316 315 317 315 314 315 312 309 309 314 318 311 311 319 327 336 339 339 346 346 346 346 345 345 344 344 344 341 341 339 339 338 337 339 339 338 338 337 337 336 336 338 338 338 338 339 339 340 340 339 339 339 339 338 336 334 337 340 340 340 339 339 338 338 337 337 336 335 334 332 331 331 331
313 312 311 312 312 311 310 310 312 313 311 310 314 316 315 316 315 315 314 311 310 311 314 317 313 311 316 325 334 335 336 340 341 344 344 343 344 342 343 344 342 341 340 340 340 338 338 339 339 339 338 337 336 336 337 338 338 338 340 340 340 340 339 339 339 338 337 334 335 339 340 339 339 339 338 338 337 337 336 335 334 332 331 330 330 330
313 312 311 312 311 311 310 311 313 313 311 312 315 316 315 316 315 315 314 311 312 311 309 312 312 310 311 320 330 333 331 332 336 341 342 341 340 340 341 343 342 342 341 341 340 338 338 340 340 339 338 336 336 336 337 337 337 338 339 338 340 340 339 340 340 337 336 335 338 340 339 338 338 337 337 337 336 336 335 334 332 331 331 330 330 330
313 313 312 312 311 311 311 312 312 312 312 314 316 315 315 315 315 315 314 311 311 311 308 309 311 310 309 314 323 328 327 328 332 336 338 340 339 338 340 341 341 342 341 339 339 339 340 341 341 339 338 338 337 338 338 337 336 337 338 337 338 340 338 339 339 337 336 338 339 338 338 338 337 336 336 336 336 335 333 332 331 331 331 330 330 330
313 313 312 312 312 312 312 312 312 312 312 314 315 315 314 314 315 315 314 311 309 310 310 310 311 311 309 312 319 325 327 328 329 331 333 338 340 338 338 338 340 341 340 339 339 339 342 342 341 341 340 340 339 337 337 336 335 335 337 337 337 338 336 336 338 336 335 337 338 337 337 337 337 336 336 335 334 333 332 331 330 329 330 330 330 329
313 313 313 313 312 312 312 311 312 312 312 314 313 313 312 312 312 312 311 311 310 310 310 311 312 311 308 310 319 325 327 327 328 330 331 332 335 335 335 337 339 340 339 339 339 339 341 342 341 341 341 340 338 336 335 335 335 335 336 337 336 336 335 335 336 335 334 336 337 336 336 335 335 335 334 333 332 331 330 330 329 328 328 329 329 329
314 313 313 313 312 312 312 310 311 312 312 313 312 311 310 310 311 311 311 311 311 310 311 312 311 309 309 312 319 325 326 327 327 329 329 329 332 333 333 336 339 340 339 339 340 340 340 341 341 342 341 340 338 336 335 335 335 334 334 336 334 334 335 334 333 334 335 336 336 335 334 333 333 333 332 332 331 330 329 328 328 328 328 328 328 328
313 314 313 312 312 312 312 310 309 310 311 311 310 309 309 310 312 314 312 311 311 310 311 312 311 309 309 313 319 324 326 327 326 327 328 328 331 333 333 336 338 340 339 338 339 340 339 340 341 341 341 340 336 334 335 336 335 333 333 334 333 333 335 335 334 334 335 335 334 334 333 332 332 332 331 330 329 329 328 328 328 328 327 327 327 327
313 314 313 312 311 311 312 311 311 311 310 311 312 311 309 309 312 313 311 311 311 311 310 312 311 309 309 314 320 322 324 325 325 324 326 328 331 331 333 336 337 338 337 337 339 339 338 341 341 341 341 339 335 334 336 336 335 335 333 333 334 333 334 335 334 334 334 333 333 333 332 332 331 330 329 328 328 327 327 328 327 326 326 326 326 326
312 313 313 313 312 311 312 312 314 313 310 311 312 311 309 310 312 311 311 312 312 310 310 311 311 311 315 321 322 322 324 325 325 323 326 332 332 330 333 337 338 337 337 338 340 339 339 341 340 340 341 339 336 336 337 335 336 337 334 333 334 335 334 334 334 333 332 332 331 331 331 330 330 329 327 327 326 326 326 326 325 324 325 325 325 324
311 312 313 313 312 312 312 313 314 312 310 311 310 309 310 314 314 310 310 313 313 311 311 310 310 312 317 323 323 322 324 325 326 325 329 334 332 330 335 339 339 339 339 339 340 339 340 340 340 340 341 339 337 337 338 337 336 337 335 334 334 334 334 333 333 332 331 330 329 329 329 328 328 327 326 326 326 325 325 324 324 324 324 323 323 323
312 312 313 313 312 312 313 313 313 312 312 311 309 310 313 314 314 312 310 313 313 312 311 311 311 311 311 315 322 323 323 324 326 325 329 335 334 333 337 337 337 338 339 339 339 339 339 340 340 340 340 340 338 337 338 337 336 336 335 334 334 333 333 332 332 331 330 329 328 327 327 326 326 325 325 325 325 324 323 323 323 323 323 322 322 322
313 311 312 313 312 312 312 312 311 312 313 312 311 313 312 310 310 310 311 313 313 313 312 311 311 312 309 312 320 323 322 324 325 323 325 333 337 338 339 337 336 339 340 340 339 338 339 340 339 339 340 340 338 337 337 336 336 335 334 334 333 332 331 331 330 329 329 328 326 326 325 325 324 324 324 324 323 323 322 322 322 322 321 321 321 321
314 313 312 312 312 312 311 311 310 311 312 313 313 313 312 311 310 310 311 312 312 312 313 311 311 312 312 315 320 323 325 324 324 324 324 328 335 339 341 339 338 340 340 340 339 337 338 338 339 339 339 339 338 337 336 335 335 334 333 332 331 331 330 329 328 328 327 326 325 324 324 323 323 323 323 322 322 322 321 321 321 321 320 320 320 321
314 314 312 311 311 311 311 311 311 311 311 311 311 310 311 312 312 312 312 310 311 311 311 312 312 311 315 320 322 324 326 324 325 326 325 327 333 338 340 340 340 341 341 339 338 337 338 338 338 338 338 338 337 336 335 335 334 333 332 331 330 330 329 328 327 326 325 325 324 324 323 322 322 321 321 321 321 320 320 320 320 320 320 319 320 320
313 314 313 311 310 309 310 311 311 312 312 311 311 310 310 312 311 311 311 310 310 309 310 311 311 311 317 320 321 324 326 324 325 325 326 329 335 337 339 340 341 341 340 339 337 336 338 338 338 338 337 337 336 335 334 334 332 331 331 331 330 329 328 327 326 325 324 324 323 322 321 321 321 321 321 320 320 320 319 319 319 319 319 319 319 320
314 314 312 310 310 310 311 312 312 313 313 312 312 313 313 313 310 309 310 310 309 308 309 310 308 314 326 326 320 324 328 326 326 326 329 332 334 337 340 341 341 341 340 339 336 336 338 338 337 336 336 335 334 334 333 332 331 330 330 329 328 328 327 325 325 324 323 322 321 321 320 320 320 320 320 319 319 319 319 319 319 318 319 318 319 319
315 314 312 310 310 311 311 312 312 313 313 312 312 313 313 313 312 312 312 311 310 308 309 309 309 317 332 335 329 327 329 331 330 327 329 334 335 336 339 340 341 340 339 338 336 336 337 336 336 335 334 334 333 333 332 331 330 330 329 328 327 326 325 324 323 322 321 321 320 320 319 319 319 319 319 319 319 318 318 318 318 318 318 318 318 318
313 314 312 310 311 311 311 311 311 311 311 312 312 313 314 313 313 315 313 313 312 309 309 311 310 317 331 338 335 331 328 330 332 328 330 336 338 337 338 339 339 339 339 337 336 336 335 334 334 333 332 332 332 332 331 330 329 329 328 327 326 325 324 323 322 321 320 320 319 319 318 318 319 318 318 318 318 318 317 317 317 317 318 318 318 318
313 315 312 310 311 313 312 311 311 310 311 312 312 312 313 313 314 313 311 311 311 310 310 309 310 320 334 338 334 331 328 330 333 332 333 337 339 338 338 338 339 339 338 337 335 335 334 333 333 332 331 331 331 331 330 329 328 328 326 326 324 323 322 321 320 319 319 319 318 318 318 318 318 317 317 317 317 317 317 316 316 317 317 317 317 317
313 315 314 312 311 311 311 312 312 312 311 311 312 311 312 313 314 314 311 309 310 311 310 310 313 322 331 333 331 330 330 332 335 335 335 336 338 339 339 339 338 338 337 336 335 334 334 333 332 332 331 330 330 330 329 328 327 326 325 324 323 322 321 320 319 318 318 318 317 317 317 317 317 317 316 316 316 316 316 316 316 316 317 317 316 316
313 313 315 315 312 311 312 313 314 313 312 311 311 311 312 312 314 314 311 311 312 311 310 312 315 318 322 328 330 329 331 334 335 336 337 336 337 339 339 338 337 336 336 336 334 334 334 332 331 331 330 329 329 328 328 327 326 325 324 323 321 320 319 319 318 318 317 317 317 317 317 317 316 316 316 315 316 316 316 315 315 316 316 316 316 315
314 312 314 315 314 314 315 314 314 313 312 313 312 312 312 312 313 314 313 314 315 312 311 314 316 315 319 325 327 327 331 333 335 337 339 338 338 338 338 338 337 335 335 335 334 333 333 332 330 330 330 329 328 327 326 325 324 323 323 322 321 319 318 317 317 317 317 317 316 316 317 317 316 316 315 315 315 315 315 315 315 315 315 315 315 314
313 313 315 315 315 317 317 315 314 313 312 312 312 313 314 314 314 314 315 316 316 314 314 316 317 316 319 324 325 326 329 329 333 338 339 338 337 337 337 338 337 336 335 335 334 333 333 331 329 329 329 328 326 326 325 324 323 322 321 320 319 318 317 317 316 316 316 316 316 316 317 316 316 315 315 315 315 315 315 315 315 315 314 314 314 314
313 313 315 316 316 318 319 317 315 314 313 312 313 313 314 314 314 314 316 317 316 315 317 318 318 317 319 325 327 329 329 328 331 337 339 338 337 336 337 337 337 336 336 335 334 332 331 330 329 329 328 326 325 325 324 322 321 320 320 319 318 317 316 316 316 316 315 315 316 316 316 316 315 315 315 315 315 315 315 315 315 314 314 314 313 313
315 314 314 315 315 316 318 318 316 315 314 313 313 313 314 315 314 314 316 317 316 316 317 317 316 317 322 330 333 333 333 331 332 336 337 337 336 335 336 337 337 336 335 335 333 332 330 329 328 328 327 325 325 323 321 320 319 318 318 317 316 315 315 315 315 315 315 316 316 316 316 316 315 315 315 315 315 315 315 314 314 314 313 313 312 312
315 314 314 314 313 315 318 317 317 317 314 312 313 315 315 315 316 316 316 317 317 318 317 316 316 318 324 330 332 333 334 334 335 334 335 336 335 334 336 335 334 333 334 334 332 330 328 327 326 326 325 324 323 321 319 318 317 317 316 315 314 314 314 314 314 315 315 316 316 316 316 316 315 315 315 315 315 314 314 314 313 313 312 312 311 311
315 315 314 313 313 314 317 318 319 318 316 316 322 324 320 318 316 315 315 317 318 317 318 317 317 321 326 327 328 331 334 335 335 333 333 335 334 334 335 334 332 332 334 333 330 328 326 325 325 324 323 322 321 319 318 318 317 316 316 315 314 314 314 314 314 315 316 316 316 316 316 315 315 315 315 314 314 314 313 313 312 312 311 311 310 310
314 313 314 313 312 314 317 319 319 319 319 323 329 329 327 326 323 318 316 317 317 317 318 318 318 323 328 327 326 330 333 334 334 333 332 333 333 334 334 333 332 332 332 330 328 326 325 325 324 323 322 321 320 319 319 318 317 317 316 315 315 315 315 314 314 315 316 316 316 316 315 315 315 314 314 314 313 313 313 312 312 311 311 310 310 309
314 313 313 312 312 315 317 317 320 322 325 328 329 327 326 326 325 321 318 317 317 318 318 318 319 321 327 329 329 331 333 333 332 331 332 332 332 333 332 332 332 331 331 329 326 325 325 324 324 323 322 321 320 320 319 318 317 316 315 315 315 315 315 315 314 315 315 315 316 315 315 315 315 314 313 313 313 312 312 311 310 310 309 309 309 308
313 313 313 312 312 315 316 315 319 323 326 329 329 327 324 322 321 321 319 318 320 320 318 318 318 320 326 331 331 331 332 332 332 332 331 332 332 331 330 330 331 331 330 328 326 325 324 323 323 323 322 321 321 320 319 318 317 316 315 315 315 315 315 315 314 315 315 315 315 315 314 314 314 313 313 312 312 311 310 310 309 308 308 308 308 307
313 313 314 313 312 313 314 315 318 320 322 326 328 328 325 324 322 320 318 318 320 320 319 319 318 320 328 332 331 332 332 332 333 333 331 331 331 331 330 330 330 331 330 328 326 325 324 324 324 322 321 321 320 319 318 317 316 315 315 315 315 316 315 315 315 315 315 315 314 314 314 314 313 312 312 311 310 310 309 308 308 307 307 307 306 306
313 314 314 313 313 313 314 315 316 317 320 325 328 327 326 326 327 324 318 316 318 318 319 319 319 321 328 332 332 332 330 328 330 332 330 329 330 330 330 329 330 330 329 327 326 326 325 324 323 321 321 320 319 318 318 317 316 315 315 315 315 315 315 315 315 315 314 314 314 314 313 313 312 312 311 310 309 309 308 307 307 306 306 306 305 304
314 313 313 313 312 313 314 314 314 317 322 326 327 326 325 326 327 324 318 317 322 324 320 319 321 324 329 332 332 331 328 327 329 332 330 329 329 330 330 329 329 329 328 327 326 325 324 322 322 321 321 319 319 318 317 316 315 315 314 314 314 314 314 315 314 314 314 314 313 313 312 312 311 310 310 309 308 308 307 306 306 306 305 305 304 304
314 313 313 313 312 312 313 313 312 318 323 325 324 324 325 326 325 321 317 320 328 330 324 321 322 324 329 332 331 329 330 330 331 331 329 329 329 329 330 329 328 327 327 326 325 324 322 321 321 321 320 319 318 318 316 316 315 314 314 314 314 313 313 313 313 313 313 313 312 312 311 310 310 309 308 307 307 306 306 306 305 305 305 304 304 304
314 313 313 313 312 311 313 312 312 317 324 325 323 324 325 325 322 320 321 324 328 330 328 325 324 326 330 331 329 329 329 329 329 329 328 328 330 329 329 329 328 327 326 324 324 323 322 321 321 320 319 318 318 317 316 315 314 313 313 313 313 312 311 312 312 313 312 312 311 311 310 309 308 308 307 306 306 306 306 305 305 305 304 304 304 304
313 313 312 312 314 312 312 313 313 317 322 325 322 322 324 324 323 323 326 326 326 329 330 328 328 329 330 330 329 329 328 328 328 328 328 329 330 329 328 328 327 326 324 323 322 321 321 321 320 320 319 318 317 317 316 315 314 313 313 313 312 310 310 311 312 312 311 311 310 309 308 307 307 307 306 306 305 305 305 305 305 304 304 304 304 304
313 313 311 312 313 312 312 315 317 319 323 324 323 323 324 325 325 327 328 327 327 329 329 328 330 330 329 329 329 328 327 327 327 328 329 329 330 328 326 326 325 324 322 322 321 320 320 320 320 319 318 317 317 316 315 314 313 312 312 312 311 309 310 311 311 311 310 310 309 308 307 306 306 306 306 305 305 305 304 304 304 304 304 304 304 303
317 318 317 317 316 315 317 319 321 324 326 326 326 327 326 325 325 326 327 327 327 327 327 328 330 329 329 329 328 327 326 326 327 329 329 329 328 327 325 323 323 323 322 321 320 320 320 319 319 318 318 317 316 316 314 313 312 311 311 310 310 310 309 310 310 309 309 309 308 307 306 306 305 305 304 304 304 304 303 303 303 303 304 304 303 303
320 321 320 320 320 319 321 322 322 323 325 326 325 325 325 324 324 325 326 326 326 326 327 328 328 328 328 327 326 326 325 325 326 328 328 327 327 325 323 322 322 321 321 320 320 319 319 318 318 318 318 317 316 315 314 313 312 310 309 309 310 310 310 309 309 308 308 307 306 305 305 305 304 304 304 303 303 303 303 303 303 303 303 303 303 303
319 318 318 319 319 318 319 323 323 323 325 325 324 323 324 324 324 324 325 325 325 326 327 327 327 327 326 326 325 325 324 323 325 327 326 325 325 323 321 321 321 320 320 320 319 318 318 318 317 317 317 316 315 314 314 313 311 310 309 309 310 310 310 309 308 308 307 306 305 305 304 304 304 303 303 302 302 302 302 302 302 302 303 303 303 302
319 317 316 318 319 318 319 322 323 323 324 324 323 323 324 324 323 323 323 323 324 325 325 325 326 326 325 325 325 324 324 323 324 325 325 325 324 323 321 320 320 320 320 319 318 318 318 317 317 317 316 315 315 314 313 312 311 310 310 310 309 309 309 308 307 306 305 304 304 304 304 303 303 303 302 302 302 302 302 302 303 303 303 302 302 302
318 316 315 317 319 319 320 321 321 322 323 323 323 323 324 323 323 323 323 323 324 325 325 324 325 325 324 324 323 323 323 323 323 324 324 324 324 323 321 321 320 320 319 318 317 317 317 317 317 317 316 315 314 313 312 311 310 310 310 310 309 308 307 306 305 305 304 303 304 303 303 303 303 303 302 303 302 301 301 302 303 302 301 300 301 302
318 319 320 318 318 319 322 322 321 322 323 323 323 323 323 322 322 323 323 323 324 324 324 324 324 324 323 323 323 323 323 322 323 323 323 323 323 322 321 320 320 319 318 317 316 317 317 317 317 316 316 314 313 312 312 311 310 309 308 308 307 306 305 304 304 303 303 303 302 302 302 302 302 302 303 302 301 299 298 300 301 300 299 298 299 300
320 323 322 320 320 320 322 322 322 322 323 323 322 321 321 321 321 323 322 322 323 323 323 324 324 323 322 322 322 322 322 322 323 323 322 322 322 322 320 319 318 317 316 315 315 316 316 316 315 315 314 314 313 312 310 310 309 308 306 305 305 304 304 303 302 302 302 302 301 301 301 302 302 302 302 302 301 299 297 297 296 296 296 297 298 298
Wind_Speed
12 11 13 13 14 16 18 18 18 17 14 14 13 13 14 10 12 14 8 13 17 14 14 16 17 16 13 13 13 10 10 12 13 14 12 12 11 9 10 11 11 8 4 7 17 18 12 9 7 7 9 11 11 10 12 13 13 12 12 12 11 9 9 10 11 11 11 10 8 9 11 12 10 10 9 9 9 8 8 7 6 6 4 4 4 4
13 13 15 17 17 17 18 18 20 19 14 12 12 12 14 10 11 13 8 11 15 11 13 16 16 18 14 13 14 14 14 12 12 13 12 13 12 9 11 12 13 12 6 6 14 19 16 12 13 13 12 12 9 6 7 8 9 9 10 11 10 10 10 11 11 10 10 8 9 11 13 13 10 9 10 10 9 9 9 8 6 5 4 4 4 4
14 14 17 19 17 17 18 18 19 19 13 9 10 10 11 10 12 13 11 11 13 9 11 16 15 15 12 13 13 13 12 11 12 11 11 12 12 10 11 11 13 14 11 9 10 14 16 14 15 17 18 17 14 12 9 7 8 8 11 12 11 11 11 11 11 11 10 7 11 14 12 10 8 9 10 10 9 10 9 8 6 5 5 4 4 4
12 13 18 18 17 18 18 18 19 16 11 9 10 9 10 12 12 9 10 11 13 10 12 15 14 12 10 13 14 13 12 11 11 11 12 12 11 11 10 9 11 14 13 12 12 14 15 14 13 15 17 19 21 19 12 9 9 8 11 11 9 10 10 10 10 9 9 7 10 12 9 9 11 11 11 10 9 8 7 6 5 5 5 4 3 3
13 14 18 19 19 20 17 18 19 13 9 11 12 10 10 13 11 7 9 12 12 14 15 13 11 9 10 13 12 14 16 15 13 14 13 12 11 11 12 11 10 12 13 14 15 15 16 16 16 16 15 13 16 16 12 11 10 9 11 11 9 9 9 10 11 10 10 7 9 10 10 11 12 11 10 9 8 7 6 6 5 5 4 4 3 3
14 16 19 21 19 20 17 17 19 14 9 11 13 12 13 13 12 9 11 13 10 12 14 12 9 8 11 12 9 10 13 14 14 14 14 12 11 11 12 13 11 10 11 12 15 15 14 16 19 20 17 13 14 15 14 12 9 8 11 12 11 10 9 11 12 12 13 10 12 10 10 10 10 10 9 8 7 7 6 5 5 4 4 4 3 3
12 17 20 21 20 21 18 15 19 17 10 9 12 14 15 12 14 12 12 12 8 9 13 13 10 7 9 12 12 11 10 11 11 11 11 10 10 10 10 12 12 11 11 11 13 14 12 16 21 21 20 18 18 17 15 13 10 10 11 12 12 10 12 14 13 12 14 12 15 10 8 8 9 9 9 7 7 6 5 5 4 4 4 3 4 3
14 20 22 22 21 19 17 13 17 18 12 7 12 16 13 10 12 13 12 11 8 8 12 15 14 9 7 12 14 14 9 9 10 10 9 8 7 9 10 11 12 13 13 12 13 14 13 15 19 22 21 19 18 17 16 14 11 13 13 11 10 9 11 14 13 12 12 12 14 8 8 8 8 9 9 7 5 5 4 4 4 4 4 3 4 4
16 20 22 22 19 15 14 14 16 19 14 8 13 17 11 6 9 11 10 10 9 9 10 15 16 11 7 10 13 15 13 13 13 13 12 11 8 8 9 11 13 14 14 13 13 13 13 15 17 20 20 17 17 17 17 14 11 12 12 9 9 8 8 10 11 9 10 11 9 7 9 9 9 8 7 6 5 5 4 3 4 3 4 3 4 4
15 17 19 19 15 13 14 15 16 18 15 8 10 16 12 8 9 9 8 9 10 10 10 13 15 10 7 9 12 14 16 16 14 13 14 15 14 13 12 12 12 14 13 12 13 13 14 16 17 18 18 17 18 18 16 16 14 9 8 9 8 8 8 9 10 8 8 8 7 8 9 9 8 7 6 6 5 5 4 4 3 3 4 4 4 5
14 14 15 14 14 13 15 16 15 18 18 7 7 12 12 10 9 8 7 8 9 9 11 15 16 14 10 8 11 12 13 16 15 13 13 15 16 15 13 12 12 12 12 12 13 14 16 18 19 20 20 18 18 18 15 18 18 11 11 15 11 8 10 10 11 10 7 8 9 9 9 8 6 6 6 6 5 4 4 4 3 4 4 5 5 5
14 13 12 13 16 15 15 16 14 18 19 9 7 11 10 9 9 7 7 8 9 9 11 16 18 16 12 7 10 12 14 15 16 16 16 15 14 12 10 10 11 11 11 12 12 14 16 16 17 20 21 20 19 19 15 15 16 12 13 17 14 11 11 11 13 12 8 8 10 9 9 6 5 6 6 6 6 5 4 4 3 4 4 5 5 5
15 15 15 14 17 17 15 14 13 15 17 11 9 11 10 9 8 8 9 9 9 8 10 16 18 14 11 10 10 12 14 15 14 16 19 20 17 14 13 11 10 10 10 11 11 13 13 13 15 18 21 22 21 19 17 16 17 16 14 14 14 14 13 13 14 11 9 9 9 9 8 6 6 7 7 7 6 5 5 4 4 5 5 5 5 6
12 14 18 17 15 16 16 13 11 12 15 12 11 11 10 9 9 10 9 8 9 8 10 16 17 12 9 10 11 12 13 14 15 14 17 22 21 18 17 14 11 10 10 11 12 13 13 14 16 19 21 23 22 20 19 19 20 22 20 18 18 18 15 14 13 11 10 9 8 8 7 7 8 8 8 8 7 5 5 5 6 6 6 6 6 7
13 11 17 18 13 16 18 14 11 12 14 13 11 11 10 9 8 8 8 8 9 9 10 12 13 11 8 6 8 12 11 12 14 15 15 18 20 17 16 15 13 12 11 12 13 13 14 16 18 19 20 23 25 23 22 20 20 22 23 22 21 20 17 13 11 11 11 9 8 7 8 8 9 9 8 7 7 6 6 7 7 7 6 6 7 7
15 10 15 17 12 17 18 14 14 14 13 11 10 11 10 10 8 7 7 6 5 8 10 8 8 9 6 3 2 9 11 8 9 11 11 16 18 16 14 15 15 13 13 13 13 13 15 17 19 19 19 22 25 25 23 21 20 21 21 21 19 18 16 14 12 12 11 9 8 8 8 9 9 10 9 8 7 7 8 8 8 8 7 7 7 7
13 10 17 17 13 18 18 14 14 13 10 9 11 11 10 11 10 8 8 3 3 8 9 7 7 8 7 4 3 7 10 10 9 8 10 16 18 17 14 14 14 13 13 13 13 13 14 16 17 18 18 20 23 23 22 21 20 20 19 19 18 17 15 14 12 12 10 9 9 9 10 10 10 10 9 9 9 9 9 9 8 9 9 8 7 7
11 9 17 19 15 18 18 15 14 13 11 9 10 11 9 11 11 8 8 6 6 9 8 10 12 10 10 8 8 12 13 13 13 12 12 15 15 13 13 15 15 14 14 14 15 14 14 15 17 17 18 19 21 23 22 21 20 20 19 19 18 16 15 13 12 11 10 10 10 10 11 11 10 10 9 10 10 10 9 9 9 9 9 8 8 8
13 8 13 19 16 16 17 16 12 13 16 12 9 11 9 9 10 8 8 8 10 9 8 12 15 11 11 8 10 15 15 14 15 15 15 16 15 13 14 16 17 17 15 15 16 15 13 14 17 18 19 19 20 22 22 21 21 21 20 18 17 15 14 12 11 11 10 10 10 11 11 11 10 10 10 10 10 10 10 10 10 9 9 9 9 10
12 8 9 16 17 15 14 13 10 12 15 14 10 12 10 7 7 8 8 7 9 9 8 12 13 9 10 9 12 16 15 16 16 14 15 16 18 16 15 17 17 16 16 14 15 15 12 15 19 19 19 19 20 21 22 21 21 21 20 19 17 14 13 11 10 10 10 10 10 11 11 10 10 10 11 11 11 10 11 11 10 10 10 10 10 11
11 8 8 13 16 15 12 12 13 13 13 11 9 12 11 7 7 8 8 7 8 8 7 9 10 8 7 8 12 15 15 15 15 15 14 14 17 17 16 16 16 16 16 15 15 15 14 16 19 19 19 20 22 22 22 22 21 20 19 18 16 14 13 11 10 10 9 10 10 10 10 10 10 11 11 11 11 11 12 11 10 10 10 11 11 11
8 8 9 11 13 13 12 15 16 15 15 12 8 10 11 9 8 9 9 9 8 8 8 7 8 7 6 7 10 12 13 14 15 15 13 13 16 16 15 16 17 16 16 15 15 15 14 17 20 21 21 22 22 21 22 22 21 20 18 17 16 14 13 11 10 9 9 10 10 10 10 11 12 12 12 12 12 12 12 11 10 10 10 11 12 12
7 7 10 11 11 12 14 17 17 17 17 14 11 11 10 10 10 8 8 9 8 9 8 8 8 4 1 2 6 6 6 9 12 12 12 13 15 14 15 16 16 16 16 15 15 13 14 19 21 21 22 22 21 21 22 21 20 19 18 17 15 14 12 10 9 9 9 10 10 10 11 13 14 13 13 13 13 12 12 11 11 11 11 11 11 11
6 5 9 10 10 10 13 15 16 17 16 13 13 13 10 11 11 8 7 7 7 9 8 7 7 4 2 1 2 4 5 6 9 11 11 11 13 14 15 16 15 16 16 15 14 12 14 19 20 19 22 22 22 23 23 20 19 18 17 16 15 13 12 10 9 9 10 10 11 11 13 15 15 14 14 13 13 12 12 12 12 12 11 11 11 11
5 7 10 11 11 11 12 14 14 16 14 10 12 14 13 14 15 11 9 6 7 10 11 8 6 4 4 4 2 6 10 10 11 13 13 12 13 14 14 14 15 15 15 15 15 14 15 18 18 19 22 22 23 23 21 20 19 18 16 15 15 13 12 10 10 10 11 11 12 13 15 16 15 14 14 13 13 12 12 12 12 12 12 11 11 11
8 9 9 11 11 11 12 12 11 12 12 9 13 17 17 17 17 13 9 7 7 10 11 10 5 2 4 6 6 8 11 11 12 14 14 13 13 14 15 15 15 15 15 17 16 15 16 17 17 20 21 21 22 22 21 20 19 17 16 15 14 13 11 11 10 10 11 13 14 15 16 16 15 14 14 13 13 13 12 12 12 12 12 11 11 12
8 9 11 11 11 11 11 11 10 12 12 11 15 19 19 19 17 13 9 8 8 8 9 10 6 4 5 7 8 9 10 11 12 12 13 12 12 13 15 15 14 14 14 16 16 16 16 17 17 20 22 22 22 22 21 20 19 18 17 15 14 12 11 11 10 11 12 14 15 16 16 15 14 13 13 13 13 12 12 12 12 13 12 12 12 12
7 10 13 13 13 13 12 13 14 15 16 15 16 18 19 19 17 14 11 10 9 7 7 10 11 7 5 6 7 9 9 9 10 11 12 12 12 13 15 16 15 14 13 14 16 17 17 17 17 20 22 22 22 22 20 19 18 18 17 16 14 12 11 11 11 12 14 15 16 16 16 15 14 13 13 14 13 13 12 13 13 13 13 13 13 13
6 9 12 12 11 8 9 15 18 17 16 17 16 17 18 19 18 16 13 12 10 8 6 8 12 11 7 7 7 9 9 8 8 10 12 13 13 14 15 16 17 16 16 16 16 16 17 17 17 19 22 23 22 21 20 19 19 18 17 16 14 12 11 11 12 13 14 15 15 17 17 16 14 14 14 14 14 13 13 13 13 13 13 13 13 13
7 8 11 12 8 4 6 11 16 16 16 17 17 17 17 17 18 16 14 13 12 10 9 7 8 12 9 8 8 9 10 8 6 9 12 14 14 14 14 15 15 17 17 16 16 16 15 16 18 20 23 24 23 20 18 18 18 17 17 16 14 13 12 12 13 14 15 14 15 17 17 15 15 15 15 15 14 14 14 14 14 14 14 14 14 14
8 7 12 12 7 5 5 5 9 13 15 16 17 17 17 17 17 16 14 14 12 10 11 8 6 9 8 8 9 9 11 12 12 12 13 14 15 16 16 15 14 15 16 17 17 17 17 17 18 20 22 24 22 20 18 18 17 17 17 16 16 15 14 14 15 15 15 15 16 16 16 16 16 16 16 15 14 14 14 14 14 14 14 15 14 14
7 6 11 10 7 8 7 7 10 12 12 14 16 18 18 16 15 15 13 13 13 11 11 9 5 6 6 10 10 8 11 14 16 16 14 13 14 16 18 16 14 14 15 15 16 17 18 18 15 15 18 21 21 20 20 20 19 18 16 15 17 18 16 16 17 16 16 17 17 17 16 16 17 17 16 16 15 14 15 14 14 14 15 15 15 14
8 6 8 10 8 8 9 9 9 8 10 12 12 14 18 16 15 15 14 15 15 12 9 8 7 6 6 11 10 10 12 14 14 14 13 14 15 15 15 17 17 16 13 12 14 16 16 16 16 17 19 21 22 22 22 22 20 18 16 16 17 17 17 17 17 17 18 18 18 17 17 17 17 17 16 16 15 15 15 15 15 15 16 16 15 14
9 7 7 8 7 7 9 8 6 8 9 5 1 4 10 14 16 17 15 15 16 13 9 8 8 6 4 8 9 10 11 11 11 12 11 12 14 14 15 16 17 17 14 13 16 17 17 17 18 21 22 22 22 22 22 20 19 18 17 17 17 16 17 17 17 18 19 19 18 18 17 17 17 17 17 16 16 16 16 16 16 16 16 16 15 14
9 8 7 8 6 6 8 7 7 8 5 1 3 3 2 1 8 14 15 16 16 15 13 11 9 5 3 4 5 6 8 8 9 10 11 12 13 13 14 15 15 16 16 16 17 19 20 21 21 22 23 22 22 22 20 19 19 18 18 17 17 17 17 18 18 18 19 19 19 18 18 18 18 17 17 17 16 16 16 16 16 16 16 16 15 14
8 7 6 7 7 6 7 8 7 4 2 2 2 2 1 2 4 8 12 15 15 15 14 13 10 8 6 4 4 6 8 9 8 8 10 12 12 13 14 15 16 17 18 18 19 20 21 23 23 24 24 23 22 21 20 19 19 19 18 18 18 18 18 19 19 19 19 19 19 18 18 18 18 18 18 17 17 16 16 16 16 16 16 16 14 13
8 7 6 7 7 5 6 8 4 2 4 3 1 2 5 6 8 9 9 10 12 13 13 13 13 10 7 6 6 7 9 9 7 7 10 12 13 14 15 16 18 18 18 20 23 23 23 24 25 25 25 24 23 21 20 20 19 19 19 18 18 19 19 19 19 19 20 19 19 18 18 18 19 19 18 18 17 16 15 15 16 16 16 15 14 13
10 9 7 6 6 4 5 7 6 4 5 3 1 3 4 4 7 10 9 8 11 14 14 14 14 11 9 8 9 10 9 8 6 6 10 13 14 15 15 16 18 19 19 22 25 26 26 26 26 26 25 24 23 22 21 20 19 19 19 19 20 20 20 20 20 20 20 19 19 19 18 18 19 19 19 17 16 15 15 15 16 16 16 15 14 13
12 10 7 6 6 5 5 6 7 5 3 1 2 5 5 3 4 7 8 9 11 15 16 14 13 11 10 10 12 11 8 6 5 7 11 14 15 15 15 15 18 20 22 24 25 27 28 28 27 26 25 25 24 23 22 21 20 19 19 19 20 20 20 20 20 20 20 20 20 19 19 18 18 18 18 17 16 15 15 15 16 17 16 15 14 14
10 9 8 8 7 7 7 7 5 2 2 3 4 5 4 3 4 7 9 5 2 6 12 13 12 11 11 12 11 9 5 3 1 6 13 16 14 14 15 16 18 20 23 25 25 26 27 28 28 27 25 25 24 23 22 21 20 19 19 20 21 20 20 20 21 21 20 20 20 19 19 18 18 18 17 16 16 15 14 15 16 16 15 14 13 13
8 7 8 9 8 8 8 7 5 3 4 5 6 5 3 4 6 8 7 0 6 5 6 11 12 10 11 11 8 5 2 3 4 8 15 16 15 14 16 20 22 24 25 24 25 27 27 26 27 27 25 24 24 23 22 21 20 20 20 21 21 20 20 20 21 21 21 20 20 20 19 18 17 17 17 16 16 14 14 15 16 15 14 14 14 14
7 7 8 8 9 8 7 7 6 3 4 5 7 6 2 3 5 3 2 2 5 4 1 5 8 9 9 8 5 4 6 5 5 10 14 15 16 16 17 20 23 24 23 23 25 28 27 25 26 25 24 24 24 23 21 20 20 20 20 21 22 21 21 21 22 22 21 21 20 19 19 18 17 17 16 15 15 14 14 15 15 15 14 14 14 14
8 8 8 7 7 6 7 8 7 3 4 8 8 5 1 2 1 1 2 3 3 2 1 2 5 7 8 7 5 7 8 5 6 11 13 14 16 15 15 18 19 19 21 23 25 27 27 26 27 25 24 24 23 21 20 20 20 20 20 22 23 22 21 22 22 22 21 21 20 19 18 18 17 16 16 15 14 14 15 16 15 14 14 14 14 13
8 7 6 6 7 7 7 5 3 1 5 7 5 2 3 3 3 3 3 4 4 3 1 2 5 6 6 7 7 8 7 4 7 13 14 14 15 15 14 16 17 20 24 25 25 26 25 26 27 25 24 24 22 20 20 19 20 21 21 23 23 21 21 23 23 22 21 20 19 19 18 17 16 16 15 14 14 15 16 16 15 14 14 13 13 12
3 1 1 2 3 3 1 2 3 4 5 5 4 5 6 6 5 4 4 4 4 3 3 2 5 6 6 7 7 8 5 4 8 14 15 14 15 16 15 16 18 23 26 26 26 26 26 26 27 26 24 23 22 20 20 19 21 23 23 23 23 22 22 23 22 22 21 19 18 18 17 17 16 16 15 14 14 15 16 15 14 13 12 11 11 11
2 1 1 1 4 5 4 3 4 4 5 5 6 6 5 5 4 3 2 4 5 4 4 3 5 5 6 6 7 7 5 5 9 14 14 14 15 15 16 17 20 24 26 27 26 27 27 27 26 25 25 23 21 20 19 19 22 24 24 24 24 24 23 22 21 21 20 19 18 17 17 17 16 15 14 13 14 14 14 13 12 12 11 10 10 10
2 2 3 3 4 4 2 2 5 5 5 6 6 5 5 4 4 3 3 4 5 4 4 4 4 4 5 5 6 7 7 7 9 12 13 13 15 15 16 18 21 24 26 27 26 27 28 28 26 26 25 23 21 19 19 21 22 23 24 24 24 24 24 22 21 20 20 20 20 18 17 17 16 15 14 14 13 13 12 12 12 11 10 9 9 10
3 3 6 6 4 2 2 5 7 6 4 4 3 3 4 5 4 4 3 3 3 3 4 4 2 3 4 4 5 7 8 8 9 11 11 11 14 15 15 18 23 25 26 26 25 25 27 28 28 28 26 24 21 20 21 23 24 24 24 25 24 24 24 23 21 21 21 21 19 18 18 17 16 15 15 13 13 12 10 10 10 10 9 8 7 8
2 4 5 5 5 3 4 6 6 6 6 5 3 2 4 4 4 3 3 3 4 4 4 3 2 2 3 4 4 6 8 8 9 11 11 11 12 14 15 20 25 26 26 28 27 27 28 29 29 28 26 24 22 23 24 24 25 25 25 25 25 25 25 23 22 22 22 20 18 18 18 16 15 15 14 14 15 14 12 10 11 11 11 10 8 7
3 1 0 3 5 3 3 3 2 3 3 4 4 3 3 3 1 2 2 3 4 4 3 3 3 2 2 3 4 5 8 8 9 11 11 11 12 15 18 21 24 24 25 26 26 25 26 28 29 28 25 24 24 24 25 25 25 25 24 24 25 25 25 24 23 22 21 19 18 18 17 15 14 14 13 14 15 16 16 15 14 13 12 11 10 9
2 4 4 1 0 3 4 4 4 2 2 4 5 3 2 2 1 2 1 3 3 3 2 1 2 3 3 3 4 5 7 8 10 11 11 11 13 17 20 23 24 25 26 26 25 25 25 26 26 25 24 24 24 24 25 26 25 24 23 23 25 26 26 25 23 21 20 19 19 18 16 14 14 14 14 14 15 14 15 16 15 14 12 11 10 10
Wind_Direction
189 198 203 208 208 201 205 208 216 227 224 218 204 206 223 212 209 215 184 172 184 198 209 210 215 202 170 158 162 165 191 199 181 185 191 173 172 163 122 92 74 69 35 50 71 79 73 63 89 118 119 122 127 137 149 153 154 155 150 145 146 149 156 160 155 160 166 167 182 186 189 198 187 159 141 131 126 118 113 110 104 97 85 65 46 25
193 206 207 205 207 203 204 209 215 226 238 233 210 205 218 216 210 201 158 164 190 205 211 211 219 214 189 161 165 171 179 196 193 187 187 175 172 159 134 122 107 100 117 115 93 99 107 113 126 120 106 106 111 143 155 145 149 146 141 149 159 162 170 169 157 158 165 176 204 208 198 188 171 149 134 126 121 112 109 107 97 88 75 58 47 30
199 211 207 202 207 207 202 208 215 219 229 235 220 212 210 213 213 187 153 173 197 209 211 205 217 221 190 152 160 177 174 182 193 180 179 181 169 158 150 138 128 124 127 134 119 116 123 135 136 117 113 123 139 161 153 144 157 147 145 157 164 165 174 177 164 160 163 186 221 218 201 174 140 119 116 117 116 110 106 101 90 79 70 59 53 37
199 205 204 199 204 209 201 203 212 214 215 225 226 214 208 213 212 177 155 183 197 211 223 206 208 222 189 156 162 178 174 177 191 181 178 183 166 156 152 143 147 141 135 138 135 128 126 137 137 115 117 137 154 160 152 154 157 144 147 154 161 167 174 176 164 158 154 173 219 210 179 139 119 111 112 113 112 108 105 98 87 78 70 60 48 28
202 195 198 199 201 206 200 197 206 211 205 218 228 220 215 210 199 184 177 186 197 212 230 221 205 212 198 182 177 174 171 169 176 176 172 172 159 150 148 153 159 144 142 149 146 147 147 145 142 131 128 142 151 147 152 167 159 146 152 153 163 169 174 172 157 154 146 154 211 192 140 124 122 123 126 124 121 117 113 105 93 79 64 51 38 18
204 190 192 198 198 201 201 197 203 207 200 211 225 229 233 212 188 197 190 182 193 205 218 227 213 199 192 194 188 178 175 160 158 169 167 164 158 154 157 161 164 152 150 154 151 157 157 141 135 138 142 148 147 145 156 169 156 148 154 155 165 167 173 170 157 154 147 161 218 201 146 138 135 133 133 127 124 121 116 108 98 81 58 39 28 14
202 189 191 197 195 196 202 202 198 201 209 209 208 221 243 232 194 193 188 183 200 200 199 212 220 200 185 197 192 183 183 160 156 168 164 166 162 163 171 163 164 165 157 158 155 154 156 144 137 144 154 159 159 155 152 153 150 156 159 157 165 168 167 164 157 154 149 180 225 212 150 143 137 130 125 114 108 106 109 108 96 77 58 37 31 25
197 192 191 195 194 194 201 202 191 195 214 209 186 202 236 244 199 187 190 196 209 201 193 204 223 225 197 206 193 174 182 185 178 174 164 173 170 170 178 167 170 173 161 161 159 151 155 154 145 149 159 162 158 148 138 137 148 165 164 156 166 174 163 159 158 153 155 197 221 186 132 125 117 116 113 112 114 108 107 99 84 69 57 39 35 34
193 199 190 188 191 193 197 197 187 191 214 217 183 192 210 226 201 187 197 211 209 204 201 199 215 236 214 206 196 176 186 205 197 187 180 177 178 188 190 180 178 174 164 162 160 153 151 154 153 150 152 150 141 133 128 129 144 166 163 148 161 174 161 156 155 156 174 198 197 146 125 113 104 108 112 120 130 121 109 87 78 73 59 45 43 39
194 198 181 181 192 195 195 198 189 188 210 220 183 186 188 196 207 204 211 223 213 212 221 203 202 229 226 196 199 191 189 199 197 195 191 178 179 191 191 190 184 169 167 163 154 152 148 149 152 146 142 136 128 125 128 137 147 155 150 143 157 162 157 165 157 158 181 172 139 120 112 103 106 120 127 129 128 116 106 94 84 74 61 53 48 39
185 179 173 187 205 199 195 199 190 191 205 197 161 185 188 193 210 214 221 233 225 211 221 219 205 216 234 197 192 205 200 196 191 190 194 183 178 183 181 188 186 166 165 165 152 152 149 144 147 143 138 131 124 124 136 152 152 146 150 149 155 165 160 160 148 145 159 133 113 104 94 96 115 128 135 133 125 117 111 103 90 78 68 58 49 40
169 174 184 198 207 200 195 196 186 193 204 187 168 196 192 191 204 209 215 228 236 215 209 222 212 206 229 217 183 198 205 200 190 181 188 190 182 179 181 185 183 167 161 163 157 155 150 146 152 147 138 135 129 126 138 153 144 142 157 149 151 172 161 142 140 145 150 121 99 93 91 99 120 127 133 131 124 121 111 99 89 82 72 62 51 42
173 189 194 194 203 200 194 190 181 190 203 193 186 200 192 186 193 200 206 210 228 228 206 218 219 206 224 236 202 193 197 202 201 188 184 185 179 178 184 184 178 166 158 163 161 156 151 152 156 150 144 143 134 130 145 153 142 146 164 157 153 163 153 144 149 148 136 110 94 98 106 112 123 123 124 126 126 118 102 90 84 76 68 63 52 43
177 192 192 191 197 199 198 192 180 186 199 196 193 200 195 187 188 196 204 202 213 229 214 214 222 216 220 233 215 192 192 204 208 198 185 177 174 177 177 171 173 167 161 171 167 156 155 156 156 153 151 147 138 144 159 156 147 152 164 167 161 158 152 148 146 130 115 107 106 116 119 120 125 122 117 117 113 101 90 87 85 78 70 63 51 44
178 186 191 193 186 188 201 201 185 184 193 199 202 207 208 200 192 195 204 203 202 213 213 214 223 214 204 233 212 177 179 206 208 204 192 170 166 174 166 158 168 171 170 177 171 161 160 158 157 157 157 149 143 152 160 155 151 153 157 162 161 155 147 138 129 121 117 115 115 116 117 121 123 118 115 108 97 89 85 86 86 81 74 65 55 47
188 188 183 187 180 182 199 202 190 189 190 196 206 212 216 210 195 193 214 228 226 214 208 213 227 210 190 300 263 157 158 190 204 200 177 146 156 176 167 159 166 170 174 176 168 161 159 157 159 161 159 149 145 150 153 151 152 150 152 157 151 139 131 128 128 125 120 117 115 111 111 117 117 112 110 102 97 97 92 90 86 80 77 71 62 52
192 185 169 175 181 186 197 201 194 196 189 183 204 212 213 214 209 200 206 245 279 224 205 197 212 210 200 218 209 167 169 180 189 197 162 141 162 181 164 155 162 166 174 171 161 157 155 157 161 159 154 148 146 147 145 145 147 146 147 146 136 126 125 128 127 121 117 115 112 110 109 113 113 108 102 100 101 101 96 90 85 80 76 70 65 57
192 171 159 172 184 182 192 205 201 206 205 190 198 204 201 215 225 217 200 202 220 219 204 189 196 211 218 202 182 191 198 191 190 201 181 150 161 180 161 157 167 168 170 163 154 154 154 157 160 155 152 150 148 143 139 140 142 142 140 134 128 128 128 126 121 118 119 117 113 110 110 111 110 104 103 105 104 100 93 87 85 81 74 69 66 62
195 170 160 182 185 171 184 205 203 203 217 219 199 196 203 210 215 217 208 200 204 214 211 196 196 212 224 206 182 192 201 199 195 200 193 165 161 178 170 165 169 165 163 160 154 156 158 158 159 157 154 152 148 140 137 138 139 138 135 129 128 129 126 123 122 120 118 116 115 113 110 108 104 102 106 108 104 95 89 86 84 79 75 73 68 64
194 171 165 186 182 167 177 201 199 189 210 225 210 201 211 209 206 213 211 202 201 209 213 205 203 213 224 208 188 190 198 201 196 196 198 180 171 179 172 165 168 163 161 162 157 158 162 160 158 155 151 148 143 137 135 134 133 132 130 129 130 128 125 124 122 120 117 116 117 116 112 108 104 105 109 106 100 92 89 88 84 78 77 74 68 65
193 175 170 180 177 176 181 196 200 186 192 210 210 203 201 191 200 211 210 210 208 205 205 213 216 214 221 212 193 193 200 203 197 193 195 184 174 177 173 166 166 163 163 163 160 162 163 162 158 151 146 143 139 137 136 134 132 131 131 132 133 131 129 127 122 119 119 118 119 117 115 113 111 111 110 104 98 93 90 88 84 82 80 75 71 68
189 174 176 179 178 188 189 189 198 198 192 194 204 207 197 186 195 204 207 210 215 214 203 210 225 217 214 217 202 196 198 200 197 190 187 181 173 171 170 167 166 165 165 163 163 164 161 160 156 148 146 144 139 139 140 136 134 135 136 135 133 131 129 127 124 123 122 122 121 117 118 120 117 113 109 103 98 94 91 89 87 85 81 78 74 71
186 177 176 179 179 188 186 183 197 206 199 193 204 212 199 195 204 207 205 201 211 228 217 211 223 213 162 228 206 189 188 190 183 177 181 177 168 165 164 165 166 165 162 160 162 163 158 156 153 146 146 145 141 141 140 137 137 138 139 137 133 130 130 128 128 127 127 128 124 121 124 124 120 114 110 106 99 94 91 90 88 85 83 82 77 74
192 191 175 173 172 179 182 181 195 210 205 194 206 215 206 199 205 216 219 198 201 223 219 211 217 193 99 22 210 179 176 175 163 169 188 175 158 164 165 163 169 167 160 157 156 154 150 148 146 145 145 145 145 145 142 140 140 140 140 137 132 130 130 128 129 131 133 130 126 126 126 124 120 116 112 106 98 96 95 92 90 87 85 85 80 78
194 198 177 174 171 176 184 181 188 205 208 197 202 212 213 204 199 212 233 212 200 221 221 217 216 184 148 137 164 197 190 180 169 172 182 172 159 164 164 163 170 165 158 158 154 148 145 145 148 149 148 148 150 150 147 144 142 142 141 135 131 131 132 130 130 134 135 132 129 129 127 124 120 116 111 105 99 99 99 95 92 90 87 86 82 78
199 202 183 182 181 181 185 183 184 193 198 200 201 204 211 210 199 204 226 220 206 216 222 226 220 135 152 161 169 200 195 177 169 168 166 161 160 163 163 165 166 159 157 158 154 152 151 150 153 152 149 151 153 151 149 145 143 142 139 133 131 133 134 134 135 138 139 139 137 133 129 126 121 115 111 106 103 102 101 98 95 93 90 88 85 80
205 205 191 190 193 191 183 184 189 188 190 199 201 199 205 212 206 202 213 223 218 209 216 227 213 138 159 184 174 184 188 171 164 165 157 153 163 169 164 160 156 155 156 154 153 158 157 155 155 151 150 152 152 149 147 145 144 142 137 133 133 135 135 137 141 142 142 143 141 136 131 126 120 115 111 106 106 106 103 100 98 96 94 92 89 85
206 197 196 201 200 195 189 186 187 190 195 199 201 201 203 206 208 207 209 217 218 212 213 218 212 189 168 185 180 175 180 175 166 163 155 154 166 167 157 150 145 148 157 157 157 161 159 155 152 147 147 149 149 148 145 143 141 140 137 135 134 135 136 140 144 146 146 146 143 138 133 127 119 115 111 108 108 108 106 104 101 100 99 96 91 87
206 187 196 213 200 190 209 199 185 187 197 200 202 204 202 201 204 208 210 212 214 221 229 213 210 213 189 165 176 175 173 178 167 155 149 149 156 160 157 154 149 154 166 167 162 162 160 155 150 147 147 146 145 143 139 138 140 141 139 136 135 138 141 145 149 149 148 146 143 139 134 127 120 116 113 111 111 111 109 107 106 104 102 98 93 88
219 184 189 211 189 163 248 213 181 184 195 199 201 203 203 202 203 206 205 210 218 229 244 239 218 221 209 161 162 167 157 159 159 151 152 153 159 167 169 163 157 162 170 167 162 162 157 151 148 147 146 145 143 140 135 137 141 141 139 137 138 143 147 149 151 151 149 146 143 141 134 126 122 119 116 115 115 115 113 110 110 107 103 100 95 89
219 186 180 200 184 166 238 227 185 192 196 198 201 203 205 203 203 204 200 206 220 223 230 244 233 222 205 130 132 152 150 159 169 166 162 160 163 169 172 170 163 162 166 164 161 158 152 149 149 146 145 145 142 135 130 134 137 135 136 139 143 147 150 152 151 150 149 147 144 140 134 127 125 122 120 120 119 119 118 115 112 109 104 100 95 90
214 202 178 193 197 181 193 204 205 210 206 205 205 202 202 202 201 205 201 202 214 216 217 225 228 216 169 118 125 153 159 166 172 169 167 166 165 169 171 170 163 158 162 162 157 153 148 145 140 133 133 135 131 127 128 132 133 132 133 135 139 144 148 149 150 150 148 146 143 139 134 130 127 125 124 125 124 122 121 118 115 110 105 100 96 93
199 206 179 193 205 185 184 193 201 216 216 211 209 204 203 204 201 204 205 203 208 215 217 214 225 232 165 139 154 173 172 171 169 169 174 168 168 175 172 165 163 161 159 154 152 149 140 130 125 124 129 130 130 132 135 136 136 138 138 136 140 145 147 147 150 152 149 146 143 140 136 133 130 129 128 127 127 126 123 120 116 111 104 100 98 95
190 200 182 192 204 178 174 179 185 208 214 202 199 215 208 206 204 203 204 203 205 213 221 219 226 237 169 157 181 186 177 171 162 166 174 167 169 177 172 167 167 164 158 153 152 148 138 134 136 137 138 138 137 140 142 142 142 143 142 142 145 148 149 150 152 152 149 146 144 141 138 135 133 131 130 129 129 128 125 122 117 111 106 103 101 97
189 200 182 186 201 169 158 175 193 204 208 81 22 7 32 188 207 205 204 203 202 207 216 222 219 206 172 183 196 174 156 151 151 158 165 166 168 168 168 172 170 162 158 154 150 147 145 146 146 146 145 143 142 145 145 143 143 143 143 146 149 149 150 151 151 151 149 146 143 141 139 137 134 131 131 132 131 129 127 123 118 112 108 105 102 99
184 197 188 189 192 157 154 191 202 178 122 73 352 335 50 117 185 201 206 203 200 203 212 220 219 201 179 157 135 130 130 135 144 152 157 166 170 166 168 174 169 165 163 155 149 150 150 149 148 149 149 147 147 148 146 144 145 145 147 149 150 150 151 151 150 148 147 145 144 143 141 139 136 133 133 134 133 131 128 124 118 112 108 105 102 99
186 198 202 198 194 184 186 191 179 129 162 175 247 229 205 205 201 202 209 205 203 211 214 216 218 207 173 141 133 137 136 137 143 150 157 167 172 170 171 172 171 169 159 149 148 149 148 149 150 150 149 147 148 148 147 148 148 146 148 150 150 151 151 151 150 148 146 144 143 142 142 140 137 136 136 135 133 130 127 122 116 112 108 106 103 100
191 206 214 200 193 215 224 198 186 206 205 191 146 149 170 226 215 205 219 222 212 215 218 217 218 204 169 151 150 147 147 158 165 164 169 171 170 171 173 171 171 167 152 145 150 151 151 153 152 149 148 148 148 149 148 148 149 149 150 151 151 152 153 151 149 147 145 143 142 142 141 140 139 137 136 134 131 128 125 121 115 112 109 108 106 104
195 206 218 209 196 209 229 216 205 214 218 194 122 129 148 190 174 180 215 225 209 208 212 214 215 200 172 159 157 156 170 198 191 165 168 172 172 174 171 166 167 164 153 152 157 153 148 149 149 147 147 147 147 149 149 148 150 151 151 152 153 153 153 151 149 147 145 143 142 141 140 139 139 138 135 132 129 126 124 121 115 112 111 110 109 107
204 206 212 216 210 204 215 224 216 190 117 129 130 123 140 158 153 182 204 212 229 217 207 204 205 194 172 164 167 172 190 241 211 147 158 167 171 171 167 163 164 162 158 158 156 145 138 143 149 150 149 148 147 148 149 150 151 152 151 152 152 152 152 151 148 146 144 142 141 140 139 139 138 135 133 130 127 126 125 121 116 113 115 114 112 110
203 207 211 218 216 203 206 224 223 149 113 127 128 112 122 152 174 198 197 105 350 315 213 201 202 188 170 170 180 177 120 41 62 133 153 162 165 165 163 160 161 162 160 156 149 141 139 145 152 151 148 147 148 148 150 152 152 152 151 151 150 149 149 148 146 145 144 142 141 140 138 138 134 131 129 127 126 128 126 120 116 114 115 114 111 111
188 197 209 218 221 215 207 220 224 177 136 142 124 102 113 186 179 185 146 31 332 323 232 201 194 173 163 172 177 129 94 79 111 140 154 162 162 161 160 158 159 160 154 143 138 142 147 151 153 149 146 147 149 150 152 152 151 152 152 150 149 148 147 146 145 144 143 141 140 139 135 132 129 127 126 126 129 130 123 116 115 114 116 116 115 115
175 188 204 208 214 220 212 215 227 215 165 164 148 128 191 225 157 96 77 50 7 1 95 163 160 154 156 159 137 103 99 111 142 147 155 160 155 151 150 151 152 146 136 132 138 146 152 153 150 147 146 149 152 152 153 153 151 152 152 151 150 148 146 146 144 142 141 140 138 135 130 128 127 127 127 130 133 129 120 115 116 116 118 120 120 120
176 191 204 198 204 219 217 209 217 107 130 155 161 124 94 86 65 42 54 59 44 40 80 130 134 140 151 153 134 109 109 138 149 146 150 150 145 143 138 135 136 134 134 140 147 152 154 151 148 147 148 151 154 153 154 155 153 152 152 151 150 145 140 142 144 141 140 138 134 130 127 128 128 126 128 133 133 124 117 117 119 122 125 128 128 128
166 168 265 206 185 175 130 103 86 81 98 101 83 80 92 90 74 46 45 65 71 51 35 88 126 135 154 160 139 120 128 158 145 141 147 148 148 148 138 131 134 139 143 148 153 155 155 151 149 150 152 155 156 154 154 156 154 152 152 152 151 145 138 139 140 136 133 132 129 129 130 129 127 128 132 136 130 122 120 123 126 129 132 135 136 136
92 50 320 262 120 103 84 83 94 105 117 105 86 86 93 89 80 59 44 71 79 61 49 85 125 145 160 162 144 132 142 157 144 145 152 156 154 151 143 139 141 144 148 154 157 157 156 153 152 153 155 157 157 154 154 156 155 153 151 151 151 150 146 142 136 131 131 132 131 131 131 130 130 133 136 134 127 122 124 127 131 134 137 139 139 136
152 192 237 220 145 145 200 145 102 105 136 136 113 103 111 104 77 46 29 57 64 57 59 76 111 139 140 144 148 142 144 155 155 154 159 161 157 152 151 153 153 151 155 160 161 158 155 153 154 157 157 157 156 155 156 156 154 153 152 150 151 151 149 146 139 134 134 134 134 134 133 132 135 138 137 132 127 125 127 132 135 133 131 133 137 138
147 191 220 217 183 159 135 117 111 106 120 141 138 116 116 110 83 57 44 46 56 70 71 67 88 123 124 139 155 149 150 164 170 163 162 167 163 154 153 158 161 162 160 159 160 162 159 156 158 159 157 156 156 156 155 153 153 152 151 151 151 150 149 146 141 136 134 135 136 136 134 137 143 143 137 127 118 113 120 134 133 117 98 94 107 128
172 172 199 209 198 164 115 112 125 125 119 134 155 115 84 76 62 53 55 49 49 68 76 71 73 99 129 148 159 160 162 171 176 168 165 170 168 160 159 164 167 166 160 157 163 169 164 160 161 161 157 155 155 153 152 152 152 152 151 152 153 151 147 143 138 134 135 136 135 134 136 144 151 146 133 117 103 94 94 106 115 109 97 89 87 101
227 172 185 228 216 183 115 84 93 111 107 109 118 110 83 70 23 355 46 58 48 47 62 87 101 110 148 158 167 175 176 180 180 170 166 172 170 164 166 169 169 167 162 157 160 166 164 159 159 161 159 156 154 152 151 151 152 153 152 152 152 149 143 137 134 133 133 134 133 135 142 149 150 142 131 120 111 101 93 95 106 115 114 107 98 101
27 29 26 352 130 69 56 54 66 78 77 79 81 71 56 55 282 278 19 38 24 23 33 125 156 164 173 170 173 182 186 187 176 162 160 171 172 167 170 173 172 170 167 160 155 157 157 152 150 152 155 154 153 153 152 152 154 155 151 148 147 145 139 135 133 132 132 134 137 142 148 151 146 140 135 132 129 119 107 102 104 109 114 118 117 117